EA1IDU Weather Reports


Display with metric or nautical units.
time (UTC)temp
F
wind
direction
speed
MPH
gust
MPH
rain 1hr
in
rain 24hr
in
rain mn
in
humidity
%
barometer
mb
20260509185044 56 178 5.0 11.0 0.00 0.04 0.04 73 1009.6
20260509184040 56 175 6.0 13.0 0.00 0.04 0.04 71 1009.6
20260509183034 56 188 7.0 11.0 0.00 0.04 0.04 69 1009.5
20260509182029 55 158 9.0 14.0 0.00 0.04 0.04 73 1009.4
20260509181024 58 195 13.0 23.0 0.00 0.04 0.04 68 1009.4
20260509180019 59 197 9.0 15.0 0.00 0.04 0.04 66 1009.1
20260509175115 59 197 8.0 15.0 0.00 0.04 0.04 65 1008.9
20260509174110 59 194 7.0 11.0 0.00 0.04 0.04 66 1009.1
20260509173105 59 194 8.0 17.0 0.00 0.04 0.04 66 1009.0
20260509172121 59 209 7.0 11.0 0.00 0.04 0.04 65 1009.0
20260509171055 60 188 10.0 20.0 0.00 0.04 0.04 63 1008.9
20260509170050 60 199 9.0 16.0 0.00 0.08 0.04 62 1009.0
20260509165045 61 211 9.0 15.0 0.00 0.09 0.04 61 1008.9
20260509164040 60 187 10.0 15.0 0.00 0.09 0.04 63 1008.8
20260509163035 60 203 11.0 18.0 0.00 0.09 0.04 62 1008.9
20260509162030 60 206 10.0 18.0 0.00 0.09 0.04 62 1008.9
20260509161027 60 198 9.0 16.0 0.00 0.09 0.04 64 1008.9
20260509160020 60 191 10.0 17.0 0.00 0.09 0.04 66 1009.0
20260509155116 59 206 9.0 15.0 0.00 0.17 0.04 69 1009.2
20260509154110 58 208 11.0 18.0 0.00 0.17 0.04 70 1009.4
20260509153106 56 198 8.0 14.0 0.00 0.17 0.04 73 1009.6
20260509152100 56 95 2.0 6.0 0.00 0.17 0.04 77 1009.6
20260509151055 54 142 3.0 6.0 0.01 0.17 0.04 79 1009.8
20260509150050 54 100 2.0 6.0 0.02 0.17 0.04 83 1010.0
20260509145045 53 183 2.0 4.0 0.02 0.17 0.04 85 1010.4
20260509144040 52 149 4.0 9.0 0.02 0.17 0.04 85 1010.6
20260509143035 52 201 9.0 15.0 0.02 0.17 0.04 84 1010.5
20260509142030 51 196 8.0 15.0 0.04 0.17 0.04 85 1010.4
20260509141025 52 221 16.0 30.0 0.02 0.15 0.02 78 1010.4
20260509140020 57 186 17.0 29.0 0.01 0.14 0.01 67 1010.1
20260509135116 60 196 11.0 18.0 0.01 0.14 0.01 63 1009.3
20260509134110 60 210 11.0 17.0 0.01 0.14 0.01 65 1009.2
20260509133106 61 187 11.0 22.0 0.01 0.14 0.01 61 1009.2
20260509132100 62 198 10.0 17.0 0.00 0.13 0.00 58 1009.1
20260509131056 62 182 8.0 14.0 0.00 0.15 0.00 59 1009.1
20260509130051 62 213 8.0 16.0 0.00 0.18 0.00 59 1009.3
20260509125107 61 150 7.0 11.0 0.00 0.19 0.00 63 1009.3
20260509124040 60 125 10.0 16.0 0.00 0.19 0.00 66 1009.5
20260509123036 61 117 7.0 17.0 0.00 0.19 0.00 64 1009.6
20260509122112 60 154 7.0 15.0 0.00 0.20 0.00 65 1009.7
20260509121026 60 114 6.0 11.0 0.00 0.20 0.00 65 1009.9
20260509120021 60 108 7.0 16.0 0.00 0.20 0.00 66 1010.1
20260509115016 60 159 7.0 17.0 0.00 0.20 0.00 65 1010.0
20260509114111 60 159 7.0 11.0 0.00 0.20 0.00 66 1010.2
20260509113106 59 103 6.0 15.0 0.00 0.20 0.00 68 1010.3
20260509112101 58 118 10.0 15.0 0.00 0.20 0.00 69 1010.2
20260509111056 58 119 7.0 14.0 0.00 0.20 0.00 69 1010.3
20260509110052 58 133 7.0 14.0 0.00 0.20 0.00 70 1010.5
20260509105047 58 124 7.0 14.0 0.00 0.20 0.00 70 1010.4
20260509104108 58 113 8.0 15.0 0.00 0.20 0.00 70 1010.4
20260509103036 58 120 10.0 20.0 0.00 0.20 0.00 70 1010.5
20260509102031 58 148 10.0 17.0 0.00 0.20 0.00 70 1010.6
20260509101106 58 155 9.0 17.0 0.00 0.20 0.00 72 1010.5
20260509100022 57 144 7.0 14.0 0.00 0.20 0.00 74 1010.5
20260509095017 56 145 8.0 14.0 0.00 0.20 0.00 75 1010.4
20260509094111 56 128 11.0 18.0 0.00 0.20 0.00 76 1010.6
20260509093106 56 146 8.0 13.0 0.00 0.20 0.00 77 1010.4
20260509092101 55 141 8.0 17.0 0.00 0.20 0.00 77 1010.4
20260509091055 55 141 7.0 13.0 0.00 0.20 0.00 78 1010.3
20260509090050 55 111 7.0 13.0 0.00 0.20 0.00 77 1010.4
20260509085045 55 141 9.0 16.0 0.00 0.20 0.00 77 1010.5
20260509084041 55 104 5.0 9.0 0.00 0.20 0.00 78 1010.7
20260509083035 55 131 7.0 13.0 0.00 0.20 0.00 78 1010.6
20260509082030 54 117 8.0 13.0 0.00 0.20 0.00 80 1010.8
20260509081046 53 103 5.0 11.0 0.00 0.20 0.00 83 1010.9
20260509080020 51 44 5.0 8.0 0.00 0.20 0.00 89 1011.0
20260509075115 49 42 4.0 7.0 0.00 0.20 0.00 93 1011.2
20260509074133 48 42 3.0 7.0 0.00 0.20 0.00 93 1011.2
20260509073105 48 21 3.0 6.0 0.00 0.20 0.00 93 1011.0
20260509072100 47 37 4.0 7.0 0.00 0.20 0.00 94 1011.0
20260509071055 46 33 4.0 7.0 0.00 0.20 0.00 94 1011.0
20260509070110 46 19 4.0 7.0 0.00 0.20 0.00 94 1011.2
20260509065105 46 10 5.0 8.0 0.00 0.20 0.00 94 1011.1
20260509064100 46 357 4.0 8.0 0.00 0.20 0.00 94 1011.2
20260509063036 46 29 4.0 8.0 0.00 0.20 0.00 94 1011.1
20260509062030 46 36 5.0 9.0 0.00 0.20 0.00 93 1011.0
20260509061026 46 348 4.0 9.0 0.00 0.20 0.00 94 1011.0
20260509060042 46 5 4.0 7.0 0.00 0.20 0.00 94 1010.7
20260509055016 46 10 4.0 9.0 0.00 0.20 0.00 94 1010.5
20260509054131 45 32 3.0 7.0 0.00 0.20 0.00 94 1010.6
20260509053107 45 346 3.0 7.0 0.00 0.20 0.00 94 1010.6
20260509052121 45 11 4.0 8.0 0.00 0.20 0.00 93 1010.5
20260509051056 46 23 4.0 8.0 0.00 0.20 0.00 93 1010.5
20260509050050 46 49 2.0 7.0 0.00 0.20 0.00 93 1010.6
20260509045045 46 17 4.0 8.0 0.00 0.20 0.00 93 1010.6
20260509044102 47 32 3.0 7.0 0.00 0.20 0.00 93 1010.5
20260509043035 45 30 4.0 7.0 0.00 0.20 0.00 94 1010.5
20260509042051 45 14 3.0 8.0 0.00 0.20 0.00 95 1010.7
20260509041025 45 33 4.0 7.0 0.00 0.20 0.00 95 1010.8
20260509040020 45 43 6.0 11.0 0.00 0.20 0.00 95 1010.8
20260509035116 44 353 4.0 8.0 0.00 0.20 0.00 95 1010.7
20260509034110 44 34 6.0 9.0 0.00 0.20 0.00 95 1010.8
20260509033124 44 34 6.0 8.0 0.00 0.20 0.00 95 1011.2
20260509032100 44 29 3.0 7.0 0.00 0.20 0.00 95 1011.2
20260509031054 44 34 5.0 8.0 0.00 0.20 0.00 94 1011.1
20260509030049 44 37 4.0 7.0 0.00 0.20 0.00 93 1011.2
20260509025045 45 26 4.0 8.0 0.00 0.20 0.00 92 1011.3
20260509024040 46 41 5.0 7.0 0.00 0.20 0.00 91 1011.4
20260509023034 46 38 5.0 9.0 0.00 0.20 0.00 92 1011.5
20260509022029 46 31 5.0 8.0 0.00 0.20 0.00 92 1011.6
20260509021024 45 27 5.0 9.0 0.00 0.20 0.00 92 1011.7
20260509020019 46 30 3.0 7.0 0.00 0.20 0.00 91 1011.7
20260509015134 46 38 4.0 8.0 0.00 0.20 0.00 92 1012.0
20260509014109 46 18 3.0 6.0 0.00 0.20 0.00 92 1011.9
20260509013104 46 32 3.0 7.0 0.00 0.20 0.00 92 1012.0
20260509012059 46 354 3.0 7.0 0.00 0.20 0.00 91 1012.0
20260509011054 47 22 1.0 4.0 0.00 0.20 0.00 90 1012.0
20260509010049 47 39 4.0 8.0 0.00 0.20 0.00 90 1012.0
20260509005105 47 34 4.0 7.0 0.00 0.20 0.00 91 1012.1
20260509004039 46 31 3.0 4.0 0.00 0.20 0.00 92 1012.1
20260509003054 46 28 2.0 4.0 0.00 0.20 0.00 92 1012.3
20260509002029 47 45 3.0 4.0 0.00 0.20 0.00 92 1012.2
20260509001025 47 26 2.0 4.0 0.00 0.20 0.00 92 1012.3
20260509000039 47 13 2.0 4.0 0.00 0.20 0.00 92 1012.3
20260508235114 47 38 4.0 6.0 0.00 0.20 0.00 92 1012.3
20260508234130 48 40 4.0 6.0 0.00 0.20 0.00 92 1012.4
20260508233105 48 45 4.0 6.0 0.00 0.20 0.00 91 1012.4
20260508232059 48 42 4.0 6.0 0.00 0.20 0.00 91 1012.6
20260508231054 48 45 4.0 6.0 0.00 0.20 0.00 91 1012.5
20260508230049 49 45 5.0 7.0 0.00 0.20 0.00 91 1012.5
20260508225044 49 45 5.0 6.0 0.00 0.20 0.00 90 1012.6
20260508224039 49 38 4.0 6.0 0.00 0.20 0.00 90 1012.7
20260508223035 49 45 4.0 4.0 0.00 0.20 0.00 90 1012.8
20260508222029 49 45 4.0 6.0 0.00 0.20 0.00 90 1012.8
20260508221023 49 52 5.0 6.0 0.00 0.20 0.00 90 1012.9
20260508220019 49 45 5.0 8.0 0.00 0.20 0.00 90 1012.8
20260508215115 49 48 6.0 9.0 0.00 0.20 0.20 90 1012.8
20260508214109 49 45 7.0 9.0 0.00 0.20 0.20 91 1012.9
20260508213124 49 37 4.0 6.0 0.00 0.20 0.20 90 1013.0
20260508212121 49 45 4.0 6.0 0.00 0.20 0.20 90 1013.0
20260508211114 49 45 4.0 4.0 0.00 0.20 0.20 90 1013.0
20260508210049 49 45 5.0 8.0 0.00 0.20 0.20 90 1013.1
20260508205044 49 42 5.0 7.0 0.00 0.20 0.20 90 1012.9
20260508204041 49 35 3.0 6.0 0.00 0.20 0.20 89 1013.1
20260508203035 49 35 1.0 2.0 0.00 0.20 0.20 89 1013.1
20260508202030 49 12 2.0 4.0 0.00 0.20 0.20 88 1012.8
20260508201024 49 327 1.0 2.0 0.00 0.20 0.20 88 1012.9
20260508200020 49 0 2.0 4.0 0.00 0.20 0.20 89 1012.6
20260508195115 49 45 3.0 6.0 0.00 0.20 0.20 88 1012.3
20260508194109 49 3 2.0 4.0 0.00 0.20 0.20 87 1012.2
20260508193124 49 42 3.0 4.0 0.00 0.20 0.20 88 1012.3
20260508192059 50 42 2.0 4.0 0.00 0.20 0.20 87 1012.0
20260508191054 50 347 2.0 4.0 0.00 0.20 0.20 85 1011.9
20260508190050 50 42 2.0 4.0 0.00 0.20 0.20 86 1012.0